Location: Complexul Astronomic Baia Mare
(47.6577°N, 23.5639°E)
Time: 06:46:33
(UTC+03:00)

ISS - Pass Details

Date: 30 May 2017
Orbit: 402 x 408 km, 51.6° (Epoch: 29 May)

Event Time Altitude Azimuth Distance (km) Brightness Sun altitude
Rises 22:30:20 0° 272° (W) 2,332 0.7 -10.3°
Reaches altitude 10° 22:32:29 10° 280° (W) 1,471 -0.2 -10.6°
Maximum altitude 22:35:38 42° 352° (N) 598 -2.5 -10.9°
Drops below altitude 10° 22:38:48 10° 66° (ENE) 1,470 -1.1 -11.3°
Sets 22:40:57 0° 73° (ENE) 2,330 -0.2 -11.5°
